KINEIS-5C

Last updated on Mon Jun 22 2026 00:03:00 GMT+0000 (Coordinated Universal Time)

1 62081U 24219A 26172.47736993 .00000465 00000+0 81188-4 0 9995 2 62081 97.9045 331.2105 0002638 266.5493 93.5413 14.72285377 84386
UTC large
Height (km)
Speed (km/s)
/
Latitude / Longitude
Inclination (degrees)
Orbital Period (minutes)
Azimuth
Elevation
Range (km)
Doppler Factor

Next 0 passes for location: London (51.5072 / 0.1276)

No passes found over London.
KINEIS-5C